Hourly Data Report for June 19, 2012

All times are specified in Local Standard Time (LST). Add 1 hour to adjust for Daylight Saving Time where and when it is observed.

MONCTON INTL A
NEW BRUNSWICK

46°06'44.000" N
64°40'43.000" W
70.70 m
8103201
71705
YQM

Download Data

Hourly Data (June 2012)
Hourly Data Report for June 19, 2012
Temp Definition
°C
Dew Point Temp Definition
°C
Rel Hum Definition
%
Wind Dir Definition
10's deg

Wind Spd Definition
km/h
Visibility Definition
km
Stn Press Definition
kPa
Hmdx Definition


Wind Chill Definition


Weather Definition


TIME
00:00 Legend Double Dagger 11.1 8.7 85 19 11 10.0 101.17     LegendNANA
01:00 Legend Double Dagger 10.0 8.8 92 19 9 10.0 101.18     LegendNANA
02:00 Legend Double Dagger 9.3 8.1 92 18 13 10.0 101.14     Mainly Clear
03:00 Legend Double Dagger 9.5 8.3 92 20 11 10.0 101.15     LegendNANA
04:00 Legend Double Dagger 8.6 8.2 97 20 9 10.0 101.20     LegendNANA
05:00 Legend Double Dagger 8.1 8.0 99 22 9 0.2 101.24     Fog
06:00 Legend Double Dagger 10.1 8.9 92 21 12 10.0 101.28     LegendNANA
07:00 Legend Double Dagger 12.2 9.1 81 21 15 10.0 101.26     LegendNANA
08:00 Legend Double Dagger 14.6 10.1 74 19 16 10.0 101.22     Mainly Clear
09:00 Legend Double Dagger 16.6 10.7 68 17 6 10.0 101.16     LegendNANA
10:00 Legend Double Dagger 18.8 11.2 61 17 13 10.0 101.06     LegendNANA
11:00 Legend Double Dagger 19.9 12.5 62 15 14 10.0 101.02     Mostly Cloudy
12:00 Legend Double Dagger 20.5 12.1 58 16 14 10.0 100.97     LegendNANA
13:00 Legend Double Dagger 21.5 12.2 55 14 23 10.0 100.85     LegendNANA
14:00 Legend Double Dagger 21.3 11.8 54 16 21 10.0 100.82     Mostly Cloudy
15:00 Legend Double Dagger 22.5 12.6 53 16 15 10.0 100.81 25   LegendNANA
16:00 Legend Double Dagger 23.5 12.3 49 23 24 10.0 100.79 26   LegendNANA
17:00 Legend Double Dagger 21.2 12.2 56 16 18 10.0 100.72     Mostly Cloudy
18:00 Legend Double Dagger 18.7 10.6 59 16 15 10.0 100.73     LegendNANA
19:00 Legend Double Dagger 17.9 11.1 64 17 16 10.0 100.68     LegendNANA
20:00 Legend Double Dagger 15.3 11.1 76 17 13 10.0 100.67     Mainly Clear
21:00 Legend Double Dagger 12.7 10.6 87 18 17 10.0 100.60     LegendNANA
22:00 Legend Double Dagger 11.9 10.7 92 19 17 10.0 100.59     LegendNANA
23:00 Legend Double Dagger 13.5 11.7 89 20 23 10.0 100.61     Cloudy

Notes on Data Quality.

Legend

  • E = Estimated
  • M = Missing
  • NA = Not Available
  • ‡ = Partner data that is not subject to review by the National Climate Archives
Date modified: